Skip Navigation Links weather.gov 
NOAA logo-Select to go to the NOAA homepage NDBC Title GraphicClick to go to NDBC home page   Select to go to the NWS homepage
Home About Us Contact Us
 
 
    
    Station List

 Data Access
    Mobile Access
    Classic Maps
         Recent
         DART®
    Obs Search
    Ship Obs Report
    BuoyCAMs
    TAO
    DODS
    OceanSITES
    HF Radar
    OSMC
    Dial-A-Buoy
    RSS Feeds Image indicating link to RSS feed access page
    Web Widget
    Web Data Guide
    Maintenance Schedule
    Station Status Report

 Program Info
    TAO
    DART®
    IOOS®

 Publications
    NDBC PEA
    NDBC FONSI
    NDBC DQC Handbook

 Visitor Information
 
USA.gov is the U.S. government's official web portal to all federal, state and local government web resources and services.

Station LIXA2 - Little Island, AK Image indicating link to RSS feed of recent meteorological observations for station LIXA2

Owned and maintained by Marine Exchange of Alaska
C-MAN Station
58.540 N 135.047 W (58°32'24" N 135°2'49" W)

Site elevation: 9.1 m above mean sea level
Air temp height: 3 m above site elevation
Anemometer height: 3 m above site elevation
Barometer elevation: 12.2 m above mean sea level

Search And Rescue (SAR) Data

Meteorological Observations from Nearby Stations and Ships Image indicating link to RSS feed of recent meteorological observations near station LIXA2

Large icon indicates selected station.
yellow diamond Stations with recent data
red diamond Stations with no data in last 8 hours
     (24 hours for tsunami stations)


Conditions at LIXA2 as of
(12:43 pm AKST)
2143 GMT on 12/02/2020:
     

Click on the graph icon in the table below to see a time series plot of the last five days of that observation.

5-day plot - Wind Direction Wind Direction (WDIR): S ( 180 deg true )
5-day plot - Wind Speed Wind Speed (WSPD): 14 kts
5-day plot - Wind Gust Wind Gust (GST): 22 kts
5-day plot - Atmospheric Pressure Atmospheric Pressure (PRES): 29.56 in
5-day plot - Air Temperature Air Temperature (ATMP): 47.5 °F
5-day plot - Dew Point Dew Point (DEWP): 36.7 °F
5-day plot - Wind Chill Wind Chill (CHILL): 41.2 °F
5-day plot - Wind Speed at 10 Meters Wind Speed at 10 meters (WSPD10M): 16 kts
5-day plot - Wind Speed at 10 Meters Wind Speed at 20 meters (WSPD20M): 17 kts
5-day plot - Wind Speed, Wind Gust and Atmospheric Pressure Combined plot of Wind Speed, Gust, and Air Pressure
Previous observations
5-day plot - Wind Direction 5-day plot - Wind Speed 5-day plot - Wind Gust 5-day plot - Wave Height 5-day plot - Dominant Wave Period 5-day plot - Average Period 5-day plot - Mean Wave Direction 5-day plot - Atmospheric Pressure 5-day plot - Pressure Tendency 5-day plot - Air Temperature 5-day plot - Water Temperature 5-day plot - Dew Point 5-day plot - Salinity 5-day plot - Visibility 5-day plot - Tide (above MLLW)
MM DD TIME
(AKST)
WDIR WSPD
kts
GST
kts
WVHT
ft
DPD
sec
APD
sec
MWD PRES
in
PTDY
in
ATMP
°F
WTMP
°F
DEWP
°F
SAL
psu
VIS
nmi
TIDE
ft
120212:33 pm S 16 24----29.57- 47.3- 36.9---
120212:23 pmSSE 19 27----29.57- 47.8- 36.9---
120212:13 pmSSE 20 28----29.57- 48.7- 36.0---
120212:03 pmSSE 20 27----29.57- 48.4- 36.5---
120211:53 amSSE 18 27----29.58- 48.0- 37.0---
120211:43 amSSE 18 27----29.58- 47.7- 37.4---
120211:33 amSSE 17 23----29.59- 47.5- 37.6---
120211:23 am S 20 32----29.60- 47.7- 37.8---
120211:13 amSSE 21 30----29.59- 47.7- 37.9---
120211:03 amSSE 21 32----29.60- 47.5- 38.5---
120210:53 amSSE 23 36----29.60- 47.7- 38.7---
120210:43 amSSE 24 34----29.60- 47.5- 38.8---
120210:33 amSSE 25 37----29.60- 47.3- 39.0---
120210:23 amSSE 24 31----29.61- 46.8- 39.4---
120210:13 amSSE 23 34----29.62- 46.4- 39.9---
120210:03 amSSE 22 33----29.62- 46.0- 40.3---
1202 9:53 amSSE 23 31----29.62- 45.9- 40.6---
1202 9:43 amSSE 24 34----29.62- 46.2- 40.8---
1202 9:33 amSSE 24 34----29.62- 46.2- 41.0---
1202 9:23 am SE 26 36----29.61- 46.4- 41.0---
1202 9:13 amSSE 24 36----29.62- 46.8- 41.4---
1202 9:03 amSSE 25 41----29.62- 47.8- 41.7---
1202 8:53 amSSE 23 33----29.61- 48.4- 41.7---
1202 8:43 amSSE 26 37----29.60- 48.4- 41.7---
1202 8:33 amSSE 23 35----29.62- 48.0- 41.9---
1202 8:23 amSSE 26 40----29.62- 47.7- 41.9---
1202 8:13 amSSE 23 35----29.61- 48.0- 42.3---
1202 8:03 amSSE 24 37----29.61- 47.8- 42.3---
1202 7:53 amSSE 23 32----29.62- 47.7- 42.4---
1202 7:43 amSSE 24 34----29.61- 47.7- 42.4---
1202 7:33 amSSE 22 31----29.61- 47.1- 42.4---
1202 7:23 amSSE 24 35----29.60- 46.9- 42.4---
1202 7:13 amSSE 25 36----29.61- 46.8- 42.4---
1202 7:03 amSSE 22 30----29.62- 46.6- 42.4---
1202 6:53 amSSE 25 33----29.61- 46.4- 42.3---
1202 6:43 amSSE 24 32----29.61- 46.8- 42.6---
1202 6:33 amSSE 25 33----29.60- 46.8- 42.4---
1202 6:23 amSSE 26 37----29.60- 46.8- 42.4---
1202 6:13 amSSE 25 33----29.60- 46.8- 42.6---
1202 6:03 amSSE 22 35----29.60- 46.6- 42.6---
1202 5:53 amSSE 22 29----29.59- 46.8- 42.6---
1202 5:43 amSSE 25 33----29.59- 46.8- 42.4---
1202 5:33 amSSE 24 33----29.60- 46.6- 42.6---
1202 5:23 amSSE 22 31----29.61- 46.4- 42.8---
1202 5:13 amSSE 23 29----29.61- 46.6- 42.8---
1202 5:03 amSSE 25 37----29.60- 46.6- 42.8---
1202 4:53 am SE 27 39----29.60- 46.4- 42.6---
1202 4:43 amSSE 24 36----29.61- 46.8- 43.0---
1202 4:33 amSSE 22 32----29.62- 46.6- 42.8---
1202 4:23 amSSE 22 30----29.61- 46.4- 42.8---
1202 4:13 amSSE 19 26----29.62- 46.2- 42.8---
1202 4:03 amSSE 21 28----29.61- 46.2- 42.6---
1202 3:53 amSSE 23 31----29.61- 46.2- 42.8---
1202 3:43 amSSE 23 31----29.60- 46.2- 42.8---
1202 3:33 amSSE 21 31----29.61- 46.0- 42.8---
1202 3:23 amSSE 22 33----29.61- 46.2- 42.8---
1202 3:13 amSSE 20 28----29.60- 46.2- 42.8---
1202 3:03 amSSE 19 28----29.60- 46.2- 42.8---
1202 2:53 amSSE 23 36----29.60- 46.4- 43.0---
1202 2:43 amSSE 21 30----29.60- 46.4- 43.0---
1202 2:33 amSSE 22 31----29.60- 46.4- 43.0---
1202 2:23 amSSE 19 29----29.60- 46.4- 43.0---
1202 2:13 amSSE 20 33----29.61- 46.4- 43.2---
1202 2:03 amSSE 19 28----29.60- 46.2- 43.2---
1202 1:53 amSSE 19 27----29.61- 46.4- 43.3---
1202 1:43 amSSE 19 26----29.60- 46.6- 43.2---
1202 1:33 amSSE 19 28----29.61- 46.4- 43.2---
1202 1:23 amSSE 19 27----29.61- 46.6- 43.2---
1202 1:13 amSSE 19 27----29.61- 46.4- 43.3---
1202 1:03 amSSE 19 28----29.61- 46.4- 43.3---
120212:53 amSSE 18 27----29.61- 46.4- 43.3---
120212:43 amSSE 17 25----29.61- 46.4- 43.3---
120212:33 amSSE 17 25----29.59- 46.2- 43.2---
120212:23 amSSE 18 27----29.61- 46.4- 43.3---
120212:13 amSSE 18 26----29.61- 46.4- 43.3---
120212:03 amSSE 22 30----29.60- 46.2- 43.2---
120111:53 pmSSE 21 29----29.60- 46.2- 43.2---
120111:43 pmSSE 20 26----29.60- 46.0- 43.2---
120111:33 pmSSE 21 29----29.60- 46.6- 43.2---
120111:23 pmSSE 21 31----29.60- 46.6- 43.2---
120111:13 pmSSE 19 31----29.60- 46.2- 43.2---
120111:03 pmSSE 15 24----29.59- 46.0- 43.0---
120110:53 pmSSE 17 26----29.59- 46.0- 42.8---
120110:43 pmSSE 19 25----29.59- 46.2- 42.8---
120110:33 pmSSE 18 34----29.59- 46.2- 42.8---
120110:23 pmSSE 18 26----29.58- 46.0- 42.6---
120110:13 pmSSE 18 26----29.58- 46.0- 42.6---
120110:03 pmSSE 20 29----29.58- 46.2- 42.8---
1201 9:53 pmSSE 16 27----29.58- 46.0- 42.6---
1201 9:43 pmSSE 17 25----29.58- 46.0- 42.6---
1201 9:33 pmSSE 16 29----29.57- 46.0- 42.6---
1201 9:23 pmSSE 17 28----29.57- 46.0- 42.8---
1201 9:13 pmSSE 17 25----29.57- 46.0- 42.6---
1201 9:03 pmSSE 17 30----29.56- 46.0- 42.6---
1201 8:53 pmSSE 17 26----29.55- 46.0- 42.6---
1201 8:43 pmSSE 18 28----29.55- 46.0- 42.6---
1201 8:33 pmSSE 16 24----29.55- 45.9- 42.6---
1201 8:23 pmSSE 16 23----29.55- 45.9- 42.6---
1201 8:13 pmSSE 18 27----29.55- 46.2- 42.8---
1201 8:03 pmSSE 16 24----29.55- 46.0- 42.6---
1201 7:53 pmSSE 18 28----29.54- 46.2- 42.8---
1201 7:43 pmSSE 18 29----29.53- 46.2- 42.8---
1201 7:33 pmSSE 20 31----29.52- 46.2- 42.8---
1201 7:23 pmSSE 20 28----29.52- 46.2- 42.8---
1201 7:13 pmSSE 21 31----29.52- 46.0- 42.8---
1201 7:03 pmSSE 25 39----29.51- 45.9- 42.6---
1201 6:53 pmSSE 26 36----29.52- 45.9- 42.8---
1201 6:43 pmSSE 28 38----29.51- 46.0- 43.0---
1201 6:33 pmSSE 25 36----29.51- 46.4- 43.2---
1201 6:23 pmSSE 25 34----29.49- 46.9- 43.5---
1201 6:13 pmSSE 26 38----29.49- 46.9- 43.5---
1201 6:03 pmSSE 23 33----29.49- 46.6- 43.3---
1201 5:53 pmSSE 27 38----29.48- 46.6- 43.5---
1201 5:43 pmSSE 26 37----29.48- 46.6- 43.5---
1201 5:33 pmSSE 23 31----29.48- 46.2- 43.2---
1201 5:23 pmSSE 23 36----29.47- 46.6- 43.5---
1201 5:13 pmSSE 26 37----29.46- 46.4- 43.5---
1201 5:03 pmSSE 21 32----29.48- 46.0- 43.3---
1201 4:53 pmSSE 19 28----29.49- 46.4- 43.5---
1201 4:43 pmSSE 22 32----29.47- 46.2- 43.3---
1201 4:33 pmSSE 24 35----29.47- 46.0- 43.3---
1201 4:23 pmSSE 26 37----29.46- 45.9- 43.2---
1201 4:13 pmSSE 26 34----29.47- 46.0- 43.3---
1201 4:03 pmSSE 24 33----29.47- 46.0- 43.3---
1201 3:53 pmSSE 23 35----29.47- 45.9- 43.0---
1201 3:43 pmSSE 18 26----29.48- 45.5- 42.8---
1201 3:33 pm S 18 28----29.49- 45.5- 42.8---
1201 3:23 pmSSE 17 26----29.49- 45.5- 42.6---
1201 3:13 pmSSE 16 24----29.49- 45.3- 42.6---
1201 2:53 pmSSE 16 23----29.49- 45.3- 42.3---
1201 2:43 pmSSE 17 25----29.49- 45.1- 42.1---
1201 2:33 pmSSE 14 23----29.50- 45.1- 42.1---
1201 2:23 pm S 15 22----29.51- 45.0- 41.9---
1201 2:13 pm S 14 24----29.51- 45.0- 41.9---
1201 2:03 pm S 14 20----29.51- 44.8- 41.7---
1201 1:53 pm S 13 19----29.52- 44.6- 41.5---
1201 1:43 pm S 13 19----29.52- 44.1- 41.2---
1201 1:33 pm S 12 17----29.52- 44.1- 41.2---
1201 1:23 pm S 11 17----29.52- 43.7- 41.0---
1201 1:13 pm S 11 16----29.53- 42.8- 40.5---
1201 1:03 pm S 12 17----29.53- 42.6- 40.1---
120112:53 pm S 10 14----29.53- 42.4- 39.9---

Description of Measurements

Links which are specific to this station are listed below:

Real Time Data in tabular form for the last forty-five days.

Historical Data & Climatic Summaries for quality controlled data for the current month, previous months, and previous years.